Regional Weather Roundup
Issued by NWS

Home | Current Version | Previous Version | Text Only | Print | Product List | Glossary On
Versions: 1 2 3 4 5 6 7 8 9 10 11 12 13 14 15 16 17 18 19 20 21 22 23 24 25 26 27 28 29 30 31 32 33 34 35 36 37 38 39 40 41 42 43 44 45 46 47 48 49 50
000
ASUS43 KDMX 262108
RWRIA

WEATHER ROUNDUP FOR IOWA
NATIONAL WEATHER SERVICE DES MOINES IA
400 PM CDT TUE JUL 26 2016

NOTE: "FAIR" INDICATES FEW OR NO CLOUDS BELOW 12,000 FEET WITH NO
SIGNIFICANT WEATHER AND/OR OBSTRUCTIONS TO VISIBILITY.

* - THESE STATIONS ARE NOT NWS STATIONS...THUS NOT UNDER NWS
QUALITY CONTROL.  THEY ALSO DO NOT REPORT WEATHER SUCH
AS PRECIPITATION OR FOG.

IAZ001>003-012>014-020>022-031>034-043>046-262200-
   NORTHWEST IOWA

CITY           SKY/WX    TMP DP  RH WIND       PRES   REMARKS
CARROLL *      SUNNY     84  66  54 SE7G13    30.04S HX  86
CHEROKEE *     SUNNY     85  66  52 S5        30.04S HX  88
DENISON *      SUNNY     84  66  54 MISG      30.02S HX  86
LE MARS *      SUNNY     86  66  51 S8G16     30.04R HX  88
SHELDON *      SUNNY     84  68  58 S8        30.04R HX  87
SIOUX CITY     SUNNY     88  67  49 SE12      30.01F HX  91
SPENCER        SUNNY     85  67  54 VRB6      30.05S HX  87
STORM LAKE *   SUNNY     82  66  57 S6        30.06S HX  85
$$

IAZ055>058-069>071-079>083-090>094-262200-
   SOUTHWEST IOWA

CITY           SKY/WX    TMP DP  RH WIND       PRES   REMARKS
ATLANTIC *     MOSUNNY   82  66  57 VRB3      30.03F HAZE    HX  85
CLARINDA *       N/A     86  68  54 MISG      30.04F HX  89
COUNCIL BLFS * SUNNY     84  68  58 SE7       30.04S HX  87
CRESTON *      SUNNY     84  66  54 E6        30.05F HX  86
HARLAN  *      MOSUNNY   84  68  58 SE6       30.06F HX  87
LAMONI         MOSUNNY   84  67  56 E7        30.02F HX  86
RED OAK *      SUNNY     84  68  58 SE6G12    30.03F HX  87
SHENANDOAH *   SUNNY     84  66  54 CALM      30.02F HX  86
$$

IAZ047>049-059>061-072>074-084-262200-
   CENTRAL IOWA

CITY           SKY/WX    TMP DP  RH WIND       PRES   REMARKS
AMES           MOSUNNY   83  68  60 SE6       30.03F HX  86
ANKENY *         N/A    N/A N/A N/A MISG        N/A
BOONE *        PTSUNNY   84  66  54 SE8       30.03F HX  86
CHARITON *       N/A    N/A N/A N/A MISG        N/A
DES MOINES     MOSUNNY   86  64  47 E8        30.02F HX  87
GRINNELL*      SUNNY     84  63  49 NE3       30.05F HX  84
KNOXVILLE *    MOSUNNY   84  63  48 SE5       30.02F HX  85
MARSHALLTOWN   SUNNY     83  64  52 CALM      30.03F HX  84
NEWTON *       MOSUNNY   84  64  51 VRB5      30.03F HX  86
PELLA *        MOSUNNY   81  63  54 CALM      30.04F HX  83
PERRY *          N/A     84  67  55 E5        30.04S HX  87
$$

IAZ004>006-015-016-023>025-035-036-262200-
   NORTH CENTRAL IOWA

CITY           SKY/WX    TMP DP  RH WIND       PRES   REMARKS
ALGONA *       MOSUNNY   84  68  58 S7        30.06S HX  87
ESTHERVILLE    SUNNY     84  68  58 S7        30.05S HX  87
FORT DODGE *   MOSUNNY   82  66  57 SE6       30.05S HX  85
MASON CITY     MOSUNNY   84  66  54 S3        30.06F HX  86
FOREST CITY *  PTSUNNY   82  64  54 S6        30.06S HX  84
IOWA FALLS *     N/A     85  65  51 SE6       30.06F HX  87
$$

IAZ007>011-017>019-026>030-037>042-050>054-066-262200-
   NORTHEAST IOWA

CITY           SKY/WX    TMP DP  RH WIND       PRES   REMARKS
CEDAR RAPIDS   MOSUNNY   84  68  58 VRB5      30.03F HX  87
CHARLES CITY * PTSUNNY   84  68  58 CALM      30.05F HX  87
CLINTON *      SUNNY     83  66  56 CALM      30.03F HX  85
DECORAH *      MOSUNNY   84  66  54 E5        30.03F HX  86
DUBUQUE        SUNNY     83  61  47 SE3       30.05F HX  83
MONTICELLO *   MOSUNNY   84  64  51 CALM      30.03F HX  86
OELWEIN *      PTSUNNY   82  68  61 CALM      30.05F HX  85
WATERLOO       SUNNY     84  64  50 E7        30.02F HX  85
$$

IAZ064-065-067-068-078-262200-
   EAST CENTRAL IOWA

CITY           SKY/WX    TMP DP  RH WIND       PRES   REMARKS
DAVENPORT      SUNNY     85  63  47 VRB5      30.03F HX  86
IOWA CITY      PTSUNNY   85  65  51 SE5       30.04F HX  86
MT. PLEASANT * MOSUNNY   86  64  47 CALM      30.02F HX  88
MUSCATINE *    PTSUNNY   86  64  48 NE6       30.02F HX  87
QUAD CITIES    SUNNY     87  63  44 SE5       30.01F HX  88
$$

IAZ062-063-075>077-085>089-095>099-262200-
   SOUTHEAST IOWA

CITY           SKY/WX    TMP DP  RH WIND       PRES   REMARKS
BURLINGTON     SUNNY     85  65  51 SE6       30.01F HX  86
FAIRFIELD *    MOSUNNY   84  64  51 NE7       30.02F HX  86
KEOKUK *       MOSUNNY   84  63  48 N6        30.00F HX  85
OSKALOOSA *      N/A     83  65  54 CALM      30.03F HX  85
CENTERVILLE *    N/A     82  64  54 E6        30.04F HX  84
OTTUMWA        MOSUNNY   85  63  47 E5        30.01F HX  86
WASHINGTON *   MOSUNNY   82  66  57 E6        30.04F HX  85
$$

ABBREVIATIONS USED IN REMARKS
   TC - TEMPERATURES IN CELSIUS
  WCI - WIND CHILL INDEX
   HX - HEAT INDEX
  VSB - VISIBILITY
$$





USA.gov is the U.S. government's official web portal to all federal, state and local government web resources and services.